#timestamp,LO_Frequency,Hit,StdDev 
1665370815.3,286046999.8,N
1665370835.1,286047002.1,N
1665370855.9,286047002.3,N
1665370875.7,286047000.4,N
1665370895.6,286047002.7,N
1665370915.4,286047002.5,N
1665370935.2,286047001.7,N
1665370955.1,286047001.7,N
1665370956.0,286047001.7,N
1665370975.8,286047002.1,N
1665370995.7,286047002.4,N
1665371015.5,286047001.2,N
1665371035.3,286047002.7,N
1665371055.2,286047001.5,N
1665371075.0,286047002.8,N
1665371075.9,286047002.8,N
1665371095.7,286047000.9,N
1665371115.6,286047002.2,N
1665371135.4,286046999.1,N
1665371155.3,286046998.7,N
1665371175.1,286046999.1,N
1665371195.8,286047000.2,N
1665371215.7,286047002.2,N
1665371235.5,286047001.8,N
1665371255.4,286047004.3,Y
1665371275.2,286047001.9,P
1665371295.0,286047002.6,P
1665371295.9,286047002.6,P
1665371315.8,286047002.1,Y
1665371335.6,286047000.7,P
1665371355.4,286047001.0,N
1665371375.3,286047000.9,N
1665371395.1,286047000.5,N
1665371415.9,286047000.3,N
1665371435.7,286047000.8,N
1665371455.5,286047000.8,N
1665371475.4,286047000.5,N
1665371495.2,286047000.6,N
1665371515.0,286047000.4,N
1665371515.9,286047000.4,N
1665371535.8,286047001.1,N
1665371555.6,286046998.4,Y
1665371575.5,286046998.7,P
1665371595.3,286046999.5,N
1665371615.1,286046996.6,P
1665371635.9,286046999.4,N
1665371655.7,286046996.9,N
1665371675.5,286046999.1,N
1665371695.4,286046997.1,N
1665371715.2,286046997.0,N
1665371735.1,286046998.9,N
1665371736.0,286046998.9,N
1665371755.8,286046997.1,N
1665371775.6,286046997.4,N
1665371795.5,286046997.7,N
1665371815.3,286046997.5,N
1665371835.1,286046997.4,N
1665371855.9,286046997.3,N
1665371875.7,286046998.0,N
1665371895.6,286046995.7,Y
1665371915.4,286046996.5,P
1665371935.2,286046999.6,N
1665371955.1,286046996.7,N
1665371956.0,286046996.7,N
1665371975.8,286046997.8,N
1665371995.7,286046997.0,N
1665372015.5,286046999.6,N
1665372035.3,286046999.6,N
1665372055.2,286046997.0,N
1665372075.0,286046999.3,N
1665372075.9,286046999.3,N
1665372095.8,286046996.7,N
1665372115.6,286046997.4,N
1665372135.4,286046997.8,N
1665372155.3,286046997.5,N
1665372175.1,286046995.1,Y
1665372195.9,286046996.9,P
1665372215.7,286046996.8,P
1665372235.5,286046996.5,P
1665372255.4,286046999.1,N
1665372275.2,286046997.8,N
1665372295.0,286046997.0,Y
1665372295.9,286046997.0,P
1665372315.8,286046998.4,P
1665372335.6,286046998.6,N
1665372355.5,286047001.0,N
1665372375.3,286046998.6,N
1665372395.1,286047000.8,N
1665372415.9,286047001.2,N
1665372435.7,286047001.2,N
1665372455.5,286047000.4,N
1665372475.4,286047000.8,N
1665372495.2,286047001.1,N
1665372515.0,286046998.6,N
1665372516.0,286046998.6,N
1665372535.8,286046998.3,N
1665372555.6,286046998.3,N
1665372575.5,286046998.2,N
1665372595.3,286046998.1,N
1665372615.1,286046998.6,N
1665372635.9,286046998.4,N
1665372655.7,286046999.0,N
1665372675.6,286047000.9,N
1665372695.4,286046998.2,N
1665372715.2,286046999.3,N
1665372735.1,286046998.4,N
1665372736.0,286046998.4,N
1665372755.8,286046998.9,N
1665372775.7,286046998.5,N
1665372795.5,286046998.6,N
1665372815.4,286046999.4,N
1665372835.2,286046999.2,N
1665372855.0,286046997.0,N
1665372855.9,286046997.0,N
1665372875.8,286046999.5,N
1665372895.6,286046996.8,N
1665372915.4,286046999.6,N
1665372935.3,286046997.7,N
1665372955.1,286046997.2,N
1665372975.9,286046997.3,N
1665372995.7,286046998.0,N
1665373015.5,286046997.8,N
1665373035.4,286046997.7,N
1665373055.2,286046998.0,N
1665373075.0,286046995.7,Y
1665373076.0,286046995.7,P
1665373095.8,286046997.3,N
1665373115.6,286046997.1,N
1665373135.5,286046997.1,Y
1665373155.3,286047000.6,P
1665373175.1,286046998.5,N
1665373195.9,286046998.2,N
1665373215.7,286047000.9,N
1665373235.6,286046998.3,N
1665373255.4,286047001.2,N
1665373275.2,286046998.5,N
1665373295.1,286047000.9,N
1665373296.0,286047000.9,N
1665373315.8,286046999.8,N
1665373335.6,286047000.4,N
1665373355.5,286046999.7,N
1665373375.3,286046999.8,N
1665373395.2,286046999.8,N
1665373415.9,286047000.3,N
1665373435.7,286047002.4,N
1665373455.6,286047002.3,N
1665373475.4,286047002.8,N
1665373495.2,286047000.3,N
1665373515.1,286047002.7,N
1665373516.0,286047002.7,N
1665373535.8,286047000.4,N
1665373555.7,286047001.1,N
1665373575.5,286047001.2,N
1665373595.3,286047000.6,N
1665373615.2,286046998.6,N
1665373635.0,286047001.0,N
1665373635.9,286047001.0,N
1665373655.7,286046998.2,N
1665373675.6,286046998.2,N
1665373695.4,286046998.1,N
1665373715.3,286047000.3,N
1665373735.1,286047000.5,N
1665373736.0,286047000.5,N
1665373755.8,286046999.7,N
1665373775.7,286047000.3,N
1665373795.5,286047000.6,N
1665373815.3,286047000.3,N
1665373835.2,286047001.0,N
1665373855.0,286047001.0,N
1665373855.9,286047001.0,N
1665373875.8,286047000.9,N
1665373895.6,286047001.2,N
1665373915.4,286047000.5,N
1665373935.3,286047000.8,N
1665373955.1,286047001.0,N
1665373975.8,286047000.7,N
1665373995.7,286047000.9,N
1665374015.5,286046998.5,N
1665374035.4,286047001.0,N
1665374055.2,286047001.0,N
1665374075.0,286047000.4,N
1665374075.9,286047000.4,N
1665374095.8,286047000.5,N
1665374115.6,286047000.6,N
1665374135.5,286047000.8,N
1665374155.3,286046998.5,N
1665374175.1,286046998.2,N
1665374195.9,286046998.8,N
1665374215.7,286046998.3,N
1665374235.5,286046999.0,N
1665374255.4,286046998.9,N
1665374275.2,286046999.3,N
1665374295.1,286046996.7,Y
1665374296.0,286046996.7,P
1665374315.8,286046999.0,N
1665374335.6,286046998.9,N
1665374355.5,286046998.8,N
1665374375.3,286046999.0,N
1665374395.2,286046999.1,N
